Regional Weather Roundup
Issued by NWS Jackson, KY

Home | Current Version | Previous Version | Text Only | Print | Product List | Glossary On
Versions: 1 2 3 4 5 6 7 8 9 10 11 12 13 14 15 16 17 18 19 20 21 22 23 24 25 26 27 28 29 30 31 32 33 34 35 36 37 38 39 40 41 42 43 44 45 46 47 48 49 50
000
ASUS43 KJKL 141619
RWRJKL

EAST KENTUCKY HOURLY WEATHER ROUNDUP
NATIONAL WEATHER SERVICE JACKSON KY
1200 PM EDT MON JUL 14 2014

NOTE: "FAIR" INDICATES FEW OR NO CLOUDS BELOW 12,000 FEET WITH
NO SIGNIFICANT WEATHER AND/OR OBSTRUCTIONS TO VISIBILITY.

* THESE REPORTS ARE NOT UNDER NWS QUALITY CONTROL AND MAY NOT
  REPORT WEATHER SUCH AS PRECIPITATION AND FOG.

KYZ079-080-083-085-087-088-110-112-115-119-120-141700
...EASTERN KENTUCKY...

CITY           SKY/WX    TMP DP  RH WIND       PRES   REMARKS
JACKSON        LGT RAIN  72  70  93 CALM      30.01F
LONDON         PTSUNNY   75  70  84 W7        29.99F
SOMERSET*      CLOUDY    82  72  69 SW9       29.97F
MONTICELLO*    MOSUNNY   85  76  74 S10       29.97F HX  94
WILLIAMSBURG*  PTSUNNY   82  72  69 SW7       30.00
MIDDLESBORO*   PTSUNNY   84  73  70 W6        30.01F HX  90
HARLAN APT*    CLOUDY    81  72  74 MISG      30.03F
BLACK MTN*       N/A     70  68  94 SW5         N/A
PIKEVILLE APT* MOSUNNY   77  70  78 CALM      30.02F
BIG SANDY*     PTSUNNY   75  71  88 SW6       30.02S
MOREHEAD APT*  PTSUNNY   75  72  88 SW5       30.00S
ASHLAND*       MOSUNNY   75  68  78 SW3       29.94F
$$

KYZ035-036-041-042-044-050-067-078-099-141700
...CENTRAL KENTUCKY...

CITY           SKY/WX    TMP DP  RH WIND       PRES   REMARKS
MT STERLING*   PTSUNNY   77  72  83 SW7       29.99F
FLEMING/MASON* CLOUDY    76  72  85 SW8       29.96F
DANVILLE*      PTSUNNY   79  72  78 CALM      29.98F
RICHMOND*      PTSUNNY   79  68  69 CALM      29.96F
LEXINGTON      CLOUDY    78  70  76 S7        29.96F
FRANKFORT      CLOUDY    75  71  87 SW9       29.95S
$$

KYZ091>093-OHZ055-061-077-WVZ005-015-034-035-042-141700
...SOUTHERN OHIO/WEST VIRGINIA...

CITY           SKY/WX    TMP DP  RH WIND       PRES   REMARKS
COVINGTON      CLOUDY    74  70  87 VRB7G16   29.94S
COLUMBUS       CLOUDY    75  71  87 SW9       29.91S
DAYTON         CLOUDY    76  70  82 SW9       29.93S
WILMINGTON     CLOUDY    74  68  81 SW7       29.93S
HUNTINGTON     LGT RAIN  73  71  93 SW6       29.97F
CHARLESTON     PTSUNNY   79  70  74 SW10      29.97F
PINEVILLE*     LGT RAIN  79  72  78 MISG      30.09F
BECKLEY        CLOUDY    77  65  66 W9        30.08R
BLUEFIELD      PTSUNNY   80  66  62 W12       30.10F
$$

VAZ002-007-008-TNZ017-027-036-066-071-141700
...SOUTHWEST VIRGINIA/EAST TENNESSEE...

CITY           SKY/WX    TMP DP  RH WIND       PRES   REMARKS
WISE*          CLOUDY    72  72 100 SW7       30.11S
JONESVILLE*    PTSUNNY   81  73  78 SW9       30.05F
ABINGDON*      PTSUNNY   83  69  64 W9        30.07F
BRISTOL        PTSUNNY   86  68  54 SW12      30.04F
KNOXVILLE      MOSUNNY   83  70  64 S9        30.02F
OAK RIDGE      MOSUNNY   86  72  62 VRB7      30.02F HX  92
CROSSVILLE     MOSUNNY   81  70  69 W12       30.07F
NASHVILLE      PTSUNNY   88  71  57 W10       29.98R HX  94
$$

...KEY TO REMARKS...
VSB - VISIBILITY IN MILES
WCI - WIND CHILL INDEX
HX  - HEAT INDEX

$$


USA.gov is the U.S. government's official web portal to all federal, state and local government web resources and services.